• In Romania
  • List of Countries
  • For 7 days
  • Water Temperature
  • Satellite Maps
  • Weather Map
  • Weather Widgets
  • user-avatar
    Login

    Hourly Weather Banbridge

    Today, 21 April, Saturday

    Time Temperature Precipitation Wind Pressure Humidity
    00:00 +7°C° 0 mm 1 mps 760 mmHg 91%
    01:00 +7°C° 0 mm 1 mps 759 mmHg 92%
    02:00 +6°C° 0 mm 1 mps 759 mmHg 92%
    03:00 +6°C° 0 mm 1 mps 759 mmHg 93%
    04:00 +6°C° 0 mm 1 mps 758 mmHg 92%
    05:00 +5°C° 0 mm 2 mps 758 mmHg 92%
    06:00 +6°C° 0 mm 2 mps 758 mmHg 92%
    07:00 +8°C° 0 mm 2 mps 757 mmHg 87%
    08:00 +10°C° 0 mm 3 mps 757 mmHg 83%
    09:00 +12°C° 0 mm 4 mps 757 mmHg 79%
    10:00 +13°C° 0 mm 4 mps 756 mmHg 74%
    11:00 +14°C° 0 mm 4 mps 756 mmHg 70%
    12:00 +15°C° 0 mm 4 mps 755 mmHg 64%
    13:00 +15°C° 0 mm 4 mps 754 mmHg 64%
    14:00 +15°C° 0 mm 4 mps 754 mmHg 63%
    15:00 +15°C° 0 mm 5 mps 753 mmHg 63%
    16:00 +15°C° 0 mm 4 mps 752 mmHg 67%
    17:00 +14°C° 0 mm 4 mps 752 mmHg 71%
    18:00 +13°C° 0 mm 4 mps 751 mmHg 75%
    19:00 +12°C° 0 mm 3 mps 750 mmHg 78%
    20:00 +10°C° 0 mm 3 mps 750 mmHg 81%
    21:00 +8°C° 0 mm 3 mps 750 mmHg 84%
    22:00 +8°C° 0 mm 3 mps 749 mmHg 85%
    23:00 +8°C° 0 mm 3 mps 749 mmHg 86%

    Tomorrow, 22 April, Sunday

    Time Temperature Precipitation Wind Pressure Humidity
    00:00 +8°C° 0 mm 3 mps 748 mmHg 88%
    01:00 +8°C° 0.2 mm 3 mps 748 mmHg 90%
    02:00 +8°C° 0.2 mm 3 mps 748 mmHg 92%
    03:00 +7°C° 0.2 mm 3 mps 747 mmHg 94%
    04:00 +7°C° 0.4 mm 3 mps 747 mmHg 95%
    05:00 +7°C° 0.4 mm 3 mps 747 mmHg 96%
    06:00 +7°C° 0.4 mm 3 mps 747 mmHg 97%
    07:00 +7°C° 0.4 mm 4 mps 747 mmHg 95%
    08:00 +7°C° 0.4 mm 4 mps 747 mmHg 94%
    09:00 +8°C° 0.4 mm 4 mps 747 mmHg 92%
    10:00 +10°C° 0.1 mm 4 mps 747 mmHg 85%
    11:00 +10°C° 0.1 mm 5 mps 747 mmHg 79%
    12:00 +13°C° 0.1 mm 5 mps 747 mmHg 72%
    13:00 +11°C° 0.3 mm 6 mps 747 mmHg 77%
    14:00 +10°C° 0.3 mm 6 mps 747 mmHg 82%
    15:00 +9°C° 0.3 mm 7 mps 747 mmHg 87%
    16:00 +9°C° 0.2 mm 6 mps 747 mmHg 86%
    17:00 +9°C° 0.2 mm 6 mps 747 mmHg 86%
    18:00 +9°C° 0.2 mm 6 mps 747 mmHg 85%
    19:00 +8°C° 0 mm 6 mps 747 mmHg 88%
    20:00 +7°C° 0 mm 5 mps 748 mmHg 90%
    21:00 +6°C° 0 mm 5 mps 748 mmHg 92%
    22:00 +6°C° 0 mm 5 mps 749 mmHg 92%
    23:00 +6°C° 0 mm 5 mps 749 mmHg 92%

    Day after tomorrow, 23 April, Monday

    Time Temperature Precipitation Wind Pressure Humidity
    00:00 +5°C° 0 mm 6 mps 750 mmHg 91%
    01:00 +5°C° 0 mm 6 mps 750 mmHg 92%
    02:00 +4°C° 0 mm 6 mps 750 mmHg 92%
    03:00 +4°C° 0 mm 6 mps 751 mmHg 93%
    04:00 +5°C° 0 mm 5 mps 751 mmHg 93%
    05:00 +5°C° 0 mm 5 mps 751 mmHg 94%
    06:00 +3°C° 0 mm 5 mps 751 mmHg 94%
    07:00 +6°C° 0 mm 5 mps 751 mmHg 90%
    08:00 +7°C° 0 mm 5 mps 751 mmHg 87%
    09:00 +8°C° 0 mm 5 mps 751 mmHg 83%
    10:00 +8°C° 0.2 mm 5 mps 751 mmHg 86%
    11:00 +8°C° 0.2 mm 6 mps 751 mmHg 89%
    12:00 +8°C° 0.2 mm 6 mps 751 mmHg 92%
    13:00 +9°C° 0.1 mm 6 mps 751 mmHg 92%
    14:00 +9°C° 0.1 mm 6 mps 751 mmHg 92%
    15:00 +10°C° 0.1 mm 7 mps 751 mmHg 92%
    16:00 +10°C° 0 mm 6 mps 751 mmHg 89%
    17:00 +9°C° 0 mm 6 mps 751 mmHg 86%
    18:00 +9°C° 0 mm 5 mps 751 mmHg 83%
    19:00 +8°C° 0 mm 4 mps 751 mmHg 85%
    20:00 +8°C° 0 mm 3 mps 752 mmHg 86%
    21:00 +7°C° 0 mm 3 mps 752 mmHg 87%
    22:00 +7°C° 0.2 mm 3 mps 752 mmHg 90%
    23:00 +7°C° 0.2 mm 3 mps 752 mmHg 93%

    24 April, Tuesday

    Time Temperature Precipitation Wind Pressure Humidity
    00:00 +7°C° 0.2 mm 3 mps 752 mmHg 95%
    01:00 +7°C° 0.1 mm 3 mps 752 mmHg 96%
    02:00 +6°C° 0.1 mm 4 mps 752 mmHg 96%
    03:00 +6°C° 0.1 mm 4 mps 752 mmHg 97%
    04:00 +7°C° 0 mm 3 mps 752 mmHg 97%
    05:00 +7°C° 0 mm 3 mps 751 mmHg 97%
    06:00 +5°C° 0 mm 3 mps 751 mmHg 97%
    07:00 +7°C° 0 mm 3 mps 751 mmHg 93%
    08:00 +8°C° 0 mm 3 mps 751 mmHg 90%
    09:00 +10°C° 0 mm 3 mps 751 mmHg 86%
    10:00 +10°C° 0.1 mm 3 mps 751 mmHg 83%
    11:00 +11°C° 0.1 mm 3 mps 751 mmHg 80%
    12:00 +11°C° 0.1 mm 3 mps 751 mmHg 78%
    13:00 +10°C° 1.2 mm 2 mps 750 mmHg 84%
    14:00 +9°C° 1.2 mm 2 mps 749 mmHg 89%
    15:00 +8°C° 1.2 mm 2 mps 749 mmHg 95%
    16:00 +8°C° 0.5 mm 2 mps 748 mmHg 95%
    17:00 +9°C° 0.5 mm 1 mps 748 mmHg 94%
    18:00 +10°C° 0.5 mm 1 mps 747 mmHg 94%
    19:00 +9°C° 0.1 mm 1 mps 747 mmHg 95%
    20:00 +7°C° 0.1 mm 2 mps 748 mmHg 95%
    21:00 +7°C° 0.1 mm 2 mps 748 mmHg 96%
    22:00 +6°C° 0 mm 2 mps 748 mmHg 96%
    23:00 +5°C° 0 mm 3 mps 748 mmHg 97%

    25 April, Wednesday

    Time Temperature Precipitation Wind Pressure Humidity
    00:00 +5°C° 0 mm 3 mps 748 mmHg 97%
    01:00 +5°C° 0 mm 4 mps 748 mmHg 97%
    02:00 +5°C° 0 mm 4 mps 747 mmHg 97%
    03:00 +5°C° 0 mm 4 mps 747 mmHg 97%
    04:00 +5°C° 0 mm 5 mps 747 mmHg 97%
    05:00 +3°C° 0 mm 5 mps 747 mmHg 96%
    06:00 +3°C° 0 mm 5 mps 747 mmHg 96%
    07:00 +4°C° 0 mm 6 mps 747 mmHg 91%
    08:00 +5°C° 0 mm 6 mps 747 mmHg 85%
    09:00 +8°C° 0 mm 6 mps 747 mmHg 80%
    10:00 +8°C° 0.2 mm 6 mps 747 mmHg 77%
    11:00 +8°C° 0.2 mm 6 mps 747 mmHg 75%
    12:00 +9°C° 0.2 mm 7 mps 747 mmHg 72%
    13:00 +9°C° 0.3 mm 7 mps 747 mmHg 73%
    14:00 +9°C° 0.3 mm 6 mps 747 mmHg 74%
    15:00 +9°C° 0.3 mm 6 mps 747 mmHg 75%
    16:00 +8°C° 0.3 mm 6 mps 747 mmHg 77%
    17:00 +8°C° 0.3 mm 6 mps 747 mmHg 79%
    18:00 +7°C° 0.3 mm 6 mps 747 mmHg 82%
    19:00 +5°C° 0 mm 6 mps 747 mmHg 83%
    20:00 +4°C° 0 mm 6 mps 747 mmHg 85%
    21:00 +3°C° 0 mm 6 mps 747 mmHg 87%
    22:00 +3°C° 0 mm 6 mps 748 mmHg 87%
    23:00 +3°C° 0 mm 6 mps 748 mmHg 87%

    26 April, Thursday

    Time Temperature Precipitation Wind Pressure Humidity
    00:00 +3°C° 0 mm 7 mps 748 mmHg 87%
    01:00 +3°C° 0 mm 7 mps 748 mmHg 87%
    02:00 +3°C° 0 mm 7 mps 748 mmHg 87%
    03:00 +3°C° 0 mm 7 mps 749 mmHg 87%
    04:00 +3°C° 0 mm 7 mps 749 mmHg 86%
    05:00 +3°C° 0 mm 7 mps 749 mmHg 86%
    06:00 +3°C° 0 mm 7 mps 750 mmHg 85%
    07:00 +4°C° 0 mm 7 mps 750 mmHg 81%
    08:00 +6°C° 0 mm 8 mps 751 mmHg 77%
    09:00 +7°C° 0 mm 8 mps 751 mmHg 72%
    10:00 +7°C° 0.3 mm 8 mps 751 mmHg 73%
    11:00 +9°C° 0.3 mm 8 mps 752 mmHg 73%
    12:00 +9°C° 0.3 mm 7 mps 752 mmHg 74%
    13:00 +9°C° 0.4 mm 7 mps 752 mmHg 74%
    14:00 +9°C° 0.4 mm 7 mps 752 mmHg 74%
    15:00 +9°C° 0.4 mm 7 mps 753 mmHg 74%
    16:00 +9°C° 0.2 mm 7 mps 753 mmHg 75%
    17:00 +8°C° 0.2 mm 6 mps 753 mmHg 76%
    18:00 +8°C° 0.2 mm 6 mps 754 mmHg 77%
    19:00 +5°C° 0 mm 6 mps 754 mmHg 81%
    20:00 +5°C° 0 mm 5 mps 755 mmHg 84%
    21:00 +3°C° 0 mm 5 mps 755 mmHg 88%
    22:00 +3°C° 0 mm 5 mps 755 mmHg 90%
    23:00 +2°C° 0 mm 5 mps 756 mmHg 92%
    Show more